Wind_Speed
30 29 28 28 29 29 29 30 30 29 29 28 28 27 26 24 22 20 19 18 17 15 14 15 15 16 17 19 20 22 21 20 19 17 15 15 14 12 11 11 11 11 10 9 8 7 6 5 4 4 4 5 6 7 8 9 10 11 12 12 13 14 15
31 29 28 28 28 28 29 30 30 30 30 30 30 29 28 25 23 20 19 19 18 16 14 15 16 17 17 18 20 21 21 21 20 18 17 16 15 13 12 12 12 12 11 10 9 8 7 5 4 3 3 3 4 5 7 8 9 10 11 11 12 13 14
32 31 29 28 28 27 28 29 30 30 29 31 32 31 28 26 23 21 20 20 19 17 15 15 17 18 19 19 20 21 21 21 20 19 17 16 15 14 13 12 12 12 11 10 9 8 7 6 4 3 1 2 3 4 6 7 8 9 10 11 12 13 13
35 33 31 29 28 28 28 29 30 30 30 32 33 31 29 27 25 23 22 21 20 18 16 15 17 20 20 20 21 22 22 21 20 19 18 17 17 16 15 14 13 12 12 12 10 9 8 6 5 3 2 1 2 4 6 7 8 9 10 11 12 12 13
38 36 33 32 31 29 29 29 30 30 30 32 33 33 30 29 28 26 24 23 22 20 17 16 18 21 22 22 22 23 23 22 20 19 19 19 19 18 17 15 13 13 13 12 11 10 8 7 6 5 3 2 3 4 6 7 8 9 10 11 12 12 13
42 39 37 35 33 31 29 28 28 29 30 31 33 33 32 31 30 28 25 24 22 21 19 18 20 23 24 23 23 24 24 23 22 21 21 20 20 19 18 16 15 14 13 12 12 10 9 8 7 6 5 4 4 5 6 7 8 9 10 11 12 12 13
45 43 41 38 35 32 30 28 27 27 30 32 33 33 33 33 32 29 26 25 24 23 21 20 21 23 24 24 24 24 25 24 24 23 22 22 21 20 20 18 17 16 14 13 12 11 10 9 8 7 6 5 5 5 6 7 8 9 10 11 12 13 14
49 46 44 41 37 33 31 29 27 27 30 32 33 34 35 35 33 31 29 27 26 25 23 21 20 22 24 25 25 25 25 25 25 25 24 23 22 21 21 20 19 17 15 14 13 12 11 10 10 9 8 6 6 6 7 8 9 10 11 12 13 14 14
52 49 46 43 40 35 32 30 28 27 30 33 34 35 37 36 35 32 30 28 27 27 25 22 21 20 22 25 26 26 25 25 26 26 25 25 24 23 23 22 21 19 17 16 15 14 13 12 11 10 9 8 8 8 8 9 10 11 12 13 14 15 15
55 52 49 46 43 39 35 33 30 28 31 35 36 37 38 38 36 34 31 30 29 28 26 23 22 21 22 25 27 27 27 28 27 27 26 25 24 24 24 24 23 21 19 18 17 16 15 13 12 11 11 11 11 11 11 12 12 13 14 15 15 15 15
58 55 52 50 47 43 39 36 33 31 33 37 38 38 38 38 37 34 32 31 30 29 27 25 23 22 22 24 26 29 30 30 30 29 28 26 25 24 24 24 24 23 21 19 18 17 16 15 14 13 13 13 14 14 15 15 15 15 15 15 15 15 14
61 58 55 53 50 47 42 39 36 34 35 37 39 39 38 37 36 34 32 30 29 29 29 26 24 23 23 23 25 28 30 31 31 31 29 27 26 24 24 23 23 23 22 21 19 18 18 17 16 15 15 16 17 17 17 18 17 16 15 15 14 14 13
64 61 59 56 53 50 46 42 40 38 37 38 39 40 39 38 37 35 32 30 29 30 30 29 25 23 23 23 24 26 29 31 31 30 29 27 26 25 24 24 23 23 23 22 21 21 20 19 18 17 17 18 19 19 19 19 18 16 15 13 13 12 12
66 64 61 59 56 53 49 46 43 41 40 41 40 40 41 39 38 37 34 31 30 31 32 31 28 25 23 23 24 25 27 28 28 27 26 26 26 25 25 25 24 24 23 23 23 23 22 21 20 19 20 20 20 20 19 18 17 15 13 12 12 12 12
68 67 64 62 59 56 53 50 47 43 42 43 42 42 42 41 40 39 37 34 33 34 34 33 31 28 25 24 25 25 26 26 26 24 23 23 25 26 27 26 26 25 24 25 25 24 23 22 21 20 20 20 20 19 19 17 15 13 12 11 11 11 11
70 69 68 65 62 59 56 54 51 47 45 45 45 44 43 43 42 41 40 37 36 37 37 35 33 31 28 26 25 25 24 24 24 23 21 22 24 26 26 26 26 25 25 26 25 24 23 22 21 20 20 19 19 18 18 16 13 12 12 11 11 11 10
72 71 70 68 65 62 60 57 55 52 48 47 47 47 46 44 43 43 42 40 39 39 39 37 35 33 30 27 25 24 23 23 24 23 22 22 23 25 26 26 25 25 25 26 25 24 23 22 21 20 19 18 17 17 16 14 12 11 11 11 10 10 9
74 73 72 71 68 66 63 60 58 56 52 49 48 49 48 46 45 44 44 41 40 40 40 38 36 34 32 28 25 23 23 24 24 24 24 23 23 24 25 25 25 25 25 25 24 23 22 21 20 18 17 17 16 15 13 11 10 11 11 10 9 9 9
75 75 74 73 71 69 66 64 61 59 56 52 50 51 50 49 46 45 45 42 40 40 41 40 38 36 34 31 28 26 27 27 26 26 26 24 23 23 23 24 24 24 23 23 22 21 21 20 18 16 15 15 15 13 11 9 9 10 10 10 9 9 9
78 77 76 75 74 72 70 67 64 62 59 55 52 52 53 52 49 47 46 44 41 40 41 40 39 37 35 34 32 31 31 30 29 28 28 26 25 23 23 23 24 23 22 21 20 20 20 18 16 14 13 13 13 12 11 9 9 10 10 10 9 9 9
80 79 78 76 76 74 73 70 67 64 62 59 55 54 54 55 52 48 46 45 42 40 40 40 39 37 36 35 34 34 32 31 30 29 28 28 27 25 24 24 24 22 21 20 19 18 17 15 14 14 13 13 12 11 11 10 9 11 11 11 10 10 10
81 81 80 79 77 77 75 73 70 66 64 63 59 56 55 56 55 51 47 43 40 38 37 38 37 36 36 36 36 35 33 32 31 31 30 29 28 27 27 26 25 23 22 21 20 18 16 15 14 13 12 12 12 12 12 11 10 12 13 12 11 12 11
82 82 82 81 80 79 78 76 73 70 67 66 63 59 57 57 57 53 47 41 39 39 39 40 38 36 36 37 37 37 37 36 35 34 33 32 32 31 30 28 26 25 23 23 22 21 20 18 16 13 13 13 14 15 15 13 12 13 15 14 14 13 13
84 83 83 83 82 81 80 78 76 74 70 68 66 62 59 59 60 57 49 44 46 48 48 47 44 40 38 38 39 41 41 40 40 39 36 35 35 35 33 30 28 26 25 25 24 23 22 21 19 17 17 17 17 17 17 15 14 15 16 16 15 15 15
86 84 83 84 84 83 82 81 79 77 75 72 69 66 63 61 62 62 56 52 53 53 48 47 48 45 43 41 40 43 45 44 44 43 40 38 37 37 36 34 31 29 28 27 27 25 24 23 22 21 21 21 20 19 18 17 16 17 18 17 16 17 17
89 87 85 84 85 85 84 83 82 81 79 76 72 69 66 63 64 66 63 58 56 54 50 50 51 48 45 43 42 44 47 48 47 46 44 42 39 37 37 36 34 33 32 31 30 28 26 25 24 24 24 24 23 22 21 20 18 19 19 18 17 18 18
92 89 87 85 86 86 86 86 85 84 82 80 76 72 69 67 66 68 68 63 57 55 53 53 54 50 46 44 42 42 44 46 48 49 48 46 41 39 38 38 37 36 35 35 34 32 30 29 28 27 26 26 26 25 25 23 21 20 20 19 18 18 18
95 92 89 87 87 87 88 88 88 87 85 83 80 75 72 71 70 70 71 69 62 57 55 56 57 54 49 45 45 45 45 47 49 51 52 50 46 43 42 40 39 38 37 37 37 36 34 33 33 32 30 29 29 29 28 26 23 21 21 21 20 19 19
99 96 93 90 89 89 89 90 90 89 87 86 84 80 74 73 72 72 73 73 68 62 59 59 59 55 47 44 49 52 50 49 51 54 56 56 52 48 46 43 41 40 40 39 39 39 37 36 35 35 34 32 31 30 28 26 25 23 22 22 21 20 20
103 100 96 94 92 91 91 92 91 91 90 88 87 84 78 74 74 74 74 75 73 68 64 64 62 56 47 46 53 57 51 47 51 57 60 61 59 54 50 47 46 44 43 42 41 41 40 39 37 37 36 35 34 32 29 26 26 25 24 22 22 21 20
107 104 100 98 96 94 93 93 93 93 92 90 89 88 84 79 77 77 76 77 77 73 70 68 66 61 54 52 57 60 55 49 52 57 61 64 63 57 52 50 50 48 46 45 44 43 42 42 41 40 39 38 36 35 31 27 26 27 26 24 23 22 22
110 107 104 101 99 98 96 95 94 94 94 93 91 90 88 85 82 80 81 81 81 79 78 75 71 66 62 60 63 64 59 55 55 58 63 66 64 58 53 51 50 48 46 45 46 46 45 44 43 43 42 41 40 39 35 30 27 28 29 27 26 26 25
112 111 108 105 103 102 99 97 96 96 95 95 94 93 92 91 88 85 84 85 86 85 85 83 79 72 67 66 68 68 64 61 60 61 64 66 63 58 55 51 47 43 42 44 48 50 48 46 45 45 44 44 42 40 37 32 30 31 32 32 31 30 28
114 113 111 108 107 105 103 100 98 98 97 97 97 96 95 94 94 91 88 87 88 88 88 87 84 77 72 71 72 71 68 66 65 65 65 64 63 60 57 53 49 47 46 47 50 51 50 48 46 45 45 45 43 40 38 35 33 35 36 35 34 32 30
117 115 113 111 110 108 107 104 102 100 100 99 99 99 98 97 97 97 94 91 89 90 90 90 86 81 77 74 75 76 75 72 70 68 66 65 65 62 58 56 55 54 51 49 49 50 51 50 48 47 46 45 43 41 39 38 38 40 38 35 34 34 33
119 117 115 113 112 111 110 108 106 103 102 102 101 101 101 100 100 99 99 96 93 92 92 91 89 86 82 79 78 79 79 78 75 73 71 69 67 65 64 64 62 58 53 51 51 52 53 52 50 49 48 46 44 43 41 41 43 43 39 36 35 36 35
120 119 117 115 114 113 113 112 110 107 105 104 104 104 103 103 102 101 101 100 97 95 94 94 93 91 89 85 82 81 81 80 79 78 77 75 73 70 69 68 66 61 58 56 55 55 54 53 52 52 50 48 46 45 44 44 46 44 40 38 37 37 36
121 120 119 117 115 114 115 115 114 111 109 107 107 106 106 105 104 103 103 102 101 99 97 96 96 96 95 90 86 84 83 83 83 83 82 81 79 77 74 71 67 64 62 60 59 58 57 55 54 53 51 50 49 48 47 47 48 46 43 40 38 37 38
Wind_Direction
250 249 247 245 243 239 235 234 232 230 227 226 225 225 223 219 220 231 242 250 256 255 241 222 215 216 222 224 221 216 210 202 199 201 204 205 205 204 199 195 194 191 191 194 197 196 192 182 159 130 104 87 75 64 53 45 40 36 32 28 26 25 25
249 251 250 247 244 242 237 233 230 227 224 221 220 221 219 215 216 227 238 246 251 253 245 227 216 213 216 220 219 214 208 202 200 201 204 206 206 207 205 200 197 197 199 201 203 205 205 198 183 155 113 84 67 57 49 41 35 32 28 24 21 19 17
245 247 249 248 246 243 241 237 232 227 222 219 217 218 216 213 214 222 232 240 245 247 242 231 219 212 212 215 216 215 210 206 203 203 206 208 208 209 210 207 205 204 205 207 210 213 214 214 208 195 160 74 53 43 39 35 29 25 22 20 18 15 13
241 242 245 247 246 243 241 239 234 228 222 218 217 215 214 213 213 217 226 234 239 241 238 231 224 217 213 212 213 214 214 211 209 207 208 210 211 211 212 212 211 210 211 214 217 220 222 227 231 230 243 328 23 27 28 25 19 15 14 13 12 11 9
241 241 241 243 245 244 242 240 238 232 224 218 216 213 212 213 213 215 221 228 235 239 234 225 223 220 217 213 211 212 214 214 212 211 211 213 214 214 215 216 215 215 218 221 224 227 231 237 246 256 270 306 349 6 11 10 6 3 3 4 5 5 3
239 240 240 241 243 245 245 243 241 235 227 220 216 212 212 215 214 214 219 226 233 236 232 223 221 222 220 216 212 212 213 213 213 213 215 217 217 216 218 220 220 220 223 225 228 232 239 246 256 267 282 304 330 347 353 354 353 352 352 354 355 355 354
237 237 238 239 240 243 245 244 241 235 227 221 216 213 215 217 216 214 217 223 229 232 232 227 223 223 223 221 216 214 213 212 212 214 218 220 219 218 219 221 223 225 226 228 232 238 244 252 261 270 282 295 312 327 335 339 340 341 342 342 341 341 342
236 235 236 237 238 240 243 244 242 235 227 221 216 213 215 217 216 214 215 220 225 230 230 228 226 224 224 224 223 220 218 214 212 213 217 220 220 220 221 222 224 227 230 232 237 244 248 254 261 268 276 285 295 308 317 323 327 329 331 332 332 333 331
236 235 235 237 237 237 239 242 242 235 226 221 218 216 216 217 217 215 215 219 224 228 230 228 226 224 223 224 226 225 223 220 218 217 218 219 218 219 221 223 224 228 230 233 238 243 247 252 257 265 272 279 287 295 302 308 313 317 320 323 326 326 325
235 235 235 235 235 234 234 235 236 231 222 218 219 221 219 218 217 215 215 219 223 228 230 229 226 224 222 223 225 225 225 224 224 224 224 223 221 220 221 222 225 229 231 235 239 242 246 249 253 261 269 277 284 289 294 299 304 308 312 316 320 321 321
234 234 233 233 233 231 230 229 229 227 220 216 218 223 223 221 219 217 216 219 224 228 231 231 228 226 223 223 224 225 226 226 226 227 229 229 227 226 225 224 227 231 234 238 243 246 249 252 255 259 267 274 280 286 291 295 299 302 306 311 315 317 319
233 233 233 233 233 231 228 227 226 224 220 217 217 222 225 224 223 222 220 221 225 230 234 235 233 231 228 225 225 226 228 228 228 228 229 231 231 231 231 231 232 234 237 241 246 250 254 258 261 264 269 274 278 284 289 292 295 299 304 309 312 314 316
232 232 232 231 232 231 228 226 225 222 219 217 217 220 222 222 222 224 225 224 226 231 236 238 238 235 232 228 227 229 231 231 231 230 229 230 233 234 236 236 237 238 240 243 246 250 254 259 265 270 273 276 279 283 286 289 292 297 301 305 307 309 311
230 231 231 230 231 230 229 226 225 222 219 217 216 218 220 219 219 222 224 225 227 230 234 237 238 237 233 229 229 230 233 236 236 234 232 231 232 234 236 238 239 240 241 244 246 248 252 257 263 268 273 276 280 283 284 286 289 292 295 298 299 302 306
228 230 230 230 229 229 228 227 225 223 220 217 216 217 219 218 217 219 222 224 227 228 230 231 234 235 232 228 227 230 233 237 239 238 235 232 231 232 235 237 239 241 242 244 246 249 252 256 260 264 268 272 276 279 280 281 284 286 287 288 291 296 302
227 228 230 229 228 227 227 226 225 223 220 218 216 216 217 218 217 217 219 222 225 227 227 227 229 231 230 225 223 227 231 235 239 239 234 230 229 231 233 236 237 239 240 243 246 249 252 255 258 260 262 265 268 270 272 274 277 279 280 281 285 292 300
227 227 229 229 228 227 226 225 225 223 220 218 216 216 217 218 218 217 218 219 222 223 224 225 227 229 230 227 222 221 225 231 235 236 233 228 226 227 230 232 233 234 236 239 241 244 248 251 253 254 255 257 260 260 262 265 271 274 275 278 284 291 298
226 227 228 229 228 227 225 224 224 224 222 218 216 216 217 218 219 219 218 219 221 221 221 222 224 227 229 228 224 220 221 226 231 234 233 230 227 227 229 231 232 232 232 234 235 237 241 245 247 248 249 251 253 254 257 261 265 269 271 275 281 287 292
225 226 227 228 228 228 226 224 223 223 223 219 216 216 217 219 221 220 219 219 220 221 221 221 222 224 226 227 224 219 216 218 224 230 234 233 231 230 232 233 235 235 234 234 234 236 239 242 245 247 249 250 253 256 258 259 259 261 266 270 274 279 283
223 224 225 227 228 228 227 225 222 221 222 220 217 215 216 218 220 221 220 219 220 221 222 223 224 225 227 227 225 221 217 215 218 224 229 234 235 233 234 235 237 238 238 236 236 237 240 244 248 250 253 254 255 258 258 255 253 254 258 262 266 271 276
222 222 223 225 227 228 228 227 223 220 220 221 218 214 215 217 218 220 220 219 220 223 223 223 225 227 229 231 232 229 225 222 223 226 228 231 234 235 234 235 237 237 237 237 237 238 240 244 248 250 253 255 256 258 256 251 251 254 255 257 260 265 271
221 221 222 223 224 226 228 228 226 221 218 219 219 215 213 216 217 218 218 218 221 226 229 228 229 231 234 236 238 237 234 232 232 233 234 234 235 235 234 234 234 234 235 235 236 238 239 240 242 244 249 254 257 256 253 250 251 256 258 259 260 264 270
221 220 220 221 222 224 226 227 227 225 220 217 218 216 213 213 216 216 213 213 218 223 226 227 225 228 234 239 242 242 240 240 238 236 235 235 236 236 235 233 231 230 231 233 234 236 237 238 238 240 243 247 249 249 248 247 249 255 259 262 264 267 272
222 220 220 220 221 222 224 225 226 227 224 219 216 216 213 211 214 214 208 208 215 217 219 219 217 216 222 231 240 243 243 243 241 238 235 233 234 236 237 236 234 231 229 230 231 232 234 235 236 236 237 238 240 243 245 245 247 251 256 260 263 267 272
222 221 219 219 220 220 222 223 224 225 226 222 217 215 214 211 211 212 208 208 213 215 215 217 215 211 211 217 228 238 241 242 243 241 238 235 233 235 236 237 238 237 235 233 231 229 229 231 232 233 235 236 238 241 244 244 243 248 253 257 260 264 268
222 221 219 219 219 219 220 222 222 223 225 225 220 215 213 211 210 211 210 208 210 212 213 213 213 210 209 211 220 231 237 242 244 242 240 238 237 236 237 237 238 239 239 239 237 233 229 228 230 233 235 237 239 241 244 244 242 244 250 255 257 261 266
222 221 220 219 219 219 219 220 221 222 222 224 222 217 213 211 210 211 210 209 208 210 211 211 211 210 209 209 216 225 231 239 245 246 243 241 239 236 235 236 237 238 239 241 241 240 236 232 231 234 237 238 239 241 243 243 242 243 248 253 256 259 265
222 221 220 219 218 219 219 219 220 221 221 222 223 220 214 211 210 210 210 210 208 208 210 210 210 211 209 209 212 217 221 228 238 243 243 241 239 235 233 232 234 236 239 241 243 243 242 238 236 237 238 239 239 240 243 244 243 243 247 251 254 257 262
223 221 220 219 218 219 219 219 219 220 220 220 222 221 216 212 211 210 210 210 209 209 210 210 209 210 213 215 215 213 214 219 226 233 237 238 237 235 234 232 232 235 239 241 243 245 245 244 241 240 240 238 237 239 243 246 245 244 246 249 252 254 259
224 222 220 219 219 218 219 219 219 220 220 219 220 221 218 213 210 210 210 210 209 209 210 210 209 210 215 220 218 213 213 217 222 227 231 233 234 234 233 232 231 233 236 239 242 244 245 245 245 243 241 238 236 237 240 244 246 245 246 250 254 255 259
224 222 220 219 219 218 218 219 219 219 219 219 219 220 219 215 212 210 210 209 209 209 210 210 209 210 213 216 214 212 212 215 220 224 227 227 229 232 233 233 233 233 235 237 239 241 243 244 244 244 242 240 238 237 239 243 245 245 246 251 258 260 264
223 222 220 219 219 219 218 219 219 220 219 219 219 219 218 218 214 211 210 209 208 208 208 209 210 211 212 212 209 209 212 215 217 221 223 224 226 230 231 232 234 235 237 238 239 239 241 242 243 244 244 242 241 241 243 245 247 245 245 250 258 263 269
223 222 220 219 219 219 219 218 219 220 220 219 219 218 218 218 217 214 211 209 208 207 207 208 210 211 212 211 210 210 214 217 218 220 221 223 226 229 229 228 230 233 236 238 238 237 238 240 242 244 246 246 246 247 248 249 250 247 245 248 256 266 274
223 222 220 219 219 219 219 219 218 219 220 219 219 218 218 218 218 216 213 211 209 209 208 208 210 212 214 214 213 213 215 218 220 221 222 223 226 229 229 225 222 224 228 231 232 234 236 239 241 243 246 248 249 250 250 251 252 250 248 251 258 267 272
222 221 220 219 218 219 219 219 218 219 220 220 220 219 218 218 218 218 217 214 211 210 210 209 210 213 215 215 215 215 216 218 219 219 220 221 223 225 225 221 219 223 228 229 230 233 236 238 240 242 245 247 249 249 249 250 252 253 253 256 260 264 267
223 221 220 218 218 218 219 219 218 218 219 220 220 220 219 218 218 218 218 217 214 213 212 212 212 214 216 217 217 216 216 217 218 217 217 219 220 221 222 223 225 230 234 233 232 234 236 237 239 241 243 245 247 248 248 250 252 254 256 257 259 262 265
223 222 220 218 217 217 218 219 219 218 219 219 220 220 220 219 219 219 219 219 218 216 214 214 214 216 217 218 219 218 217 217 218 218 217 219 221 222 225 228 231 234 235 234 234 234 235 236 239 241 242 244 247 248 248 249 252 254 255 256 258 263 265
222 221 220 219 217 216 217 219 219 218 219 219 220 220 220 219 219 219 219 220 219 218 216 216 216 217 218 219 219 219 218 218 219 220 221 222 223 226 228 231 233 234 234 234 234 235 236 238 240 241 243 245 247 248 248 249 251 254 255 255 259 263 266
Height
10955 10957 10959 10961 10962 10964 10966 10968 10971 10973 10975 10978 10980 10982 10984 10987 10989 10991 10994 10995 10996 10997 10997 10997 10998 10999 11001 11002 11004 11005 11007 11009 11011 11013 11015 11016 11017 11018 11018 11019 11019 11020 11021 11022 11023 11024 11024 11025 11025 11025 11025 11025 11025 11025 11025 11025 11024 11024 11023 11023 11023 11022 11022
10952 10954 10956 10958 10959 10961 10963 10965 10967 10970 10972 10974 10976 10979 10982 10985 10987 10990 10992 10993 10995 10996 10996 10996 10996 10998 10999 11001 11003 11004 11006 11008 11009 11011 11013 11015 11016 11017 11018 11018 11019 11020 11021 11022 11023 11024 11024 11025 11025 11026 11026 11026 11026 11026 11026 11026 11026 11025 11025 11025 11024 11023 11023
10948 10950 10953 10955 10957 10959 10961 10962 10964 10966 10969 10971 10973 10976 10980 10983 10985 10988 10990 10991 10993 10994 10995 10995 10996 10996 10998 11000 11001 11003 11005 11007 11008 11010 11012 11014 11015 11016 11017 11018 11019 11020 11021 11022 11023 11024 11024 11025 11025 11026 11026 11027 11027 11027 11027 11027 11027 11027 11026 11026 11025 11025 11024
10944 10947 10949 10952 10954 10956 10957 10959 10961 10964 10966 10968 10971 10974 10978 10981 10983 10985 10987 10989 10990 10992 10993 10994 10995 10995 10996 10998 11000 11002 11004 11005 11007 11009 11011 11012 11014 11015 11016 11017 11018 11019 11020 11021 11022 11023 11024 11025 11025 11026 11027 11027 11028 11028 11028 11028 11028 11028 11028 11027 11027 11026 11025
10941 10944 10946 10948 10949 10952 10954 10957 10959 10961 10964 10966 10968 10972 10975 10978 10980 10982 10984 10986 10988 10990 10992 10993 10994 10994 10995 10997 10998 11000 11002 11004 11006 11008 11009 11011 11012 11014 11015 11017 11018 11019 11020 11020 11021 11022 11023 11024 11025 11026 11027 11027 11028 11028 11029 11029 11029 11029 11028 11028 11027 11026 11025
10937 10940 10942 10944 10946 10949 10951 10954 10957 10959 10962 10964 10967 10970 10973 10975 10977 10980 10982 10984 10986 10988 10990 10991 10992 10993 10994 10995 10997 10999 11001 11003 11005 11006 11008 11009 11011 11012 11014 11015 11017 11018 11019 11020 11021 11022 11023 11024 11025 11026 11026 11027 11028 11028 11028 11029 11029 11029 11028 11028 11027 11026 11025
10933 10936 10938 10940 10943 10946 10948 10951 10954 10957 10960 10961 10964 10968 10971 10973 10975 10978 10979 10981 10983 10986 10988 10989 10990 10991 10993 10994 10996 10997 10999 11001 11003 11005 11006 11008 11009 11011 11012 11014 11015 11017 11018 11019 11020 11021 11022 11023 11024 11025 11026 11027 11027 11027 11028 11028 11028 11028 11028 11028 11027 11026 11025
10927 10931 10933 10937 10941 10944 10946 10949 10952 10955 10957 10959 10962 10965 10967 10969 10972 10975 10977 10979 10981 10983 10985 10987 10988 10990 10992 10993 10995 10996 10997 10999 11001 11003 11004 11006 11008 11010 11011 11012 11014 11015 11017 11018 11019 11020 11021 11022 11023 11024 11025 11026 11026 11027 11027 11027 11027 11027 11027 11027 11026 11025 11024
10922 10927 10931 10934 10938 10942 10944 10947 10950 10953 10956 10958 10960 10962 10964 10967 10969 10972 10975 10977 10978 10980 10983 10985 10987 10988 10990 10992 10993 10995 10996 10998 10999 11001 11002 11004 11006 11008 11009 11011 11012 11013 11015 11016 11017 11018 11019 11021 11022 11023 11024 11024 11025 11025 11026 11026 11026 11026 11026 11026 11025 11024 11024
10917 10922 10927 10930 10934 10938 10941 10944 10947 10950 10953 10956 10958 10959 10961 10964 10967 10970 10973 10974 10976 10978 10981 10983 10985 10987 10988 10989 10991 10993 10995 10996 10998 10999 11000 11002 11004 11005 11007 11009 11010 11012 11013 11015 11016 11017 11018 11019 11020 11021 11022 11023 11023 11024 11024 11024 11025 11025 11024 11024 11024 11023 11023
10912 10917 10921 10925 10928 10932 10936 10940 10943 10946 10950 10953 10956 10958 10960 10963 10966 10969 10971 10973 10975 10977 10979 10981 10983 10985 10986 10987 10989 10991 10992 10994 10996 10997 10999 11000 11002 11004 11005 11007 11009 11010 11012 11013 11014 11015 11016 11017 11018 11019 11020 11020 11021 11022 11022 11023 11023 11023 11023 11023 11022 11022 11022
10906 10911 10915 10919 10923 10928 10932 10936 10939 10942 10946 10949 10952 10955 10958 10962 10965 10968 10970 10973 10975 10976 10978 10980 10982 10984 10985 10986 10987 10988 10990 10992 10993 10995 10997 10999 11000 11002 11004 11005 11007 11008 11010 11011 11013 11014 11014 11015 11016 11017 11018 11019 11019 11020 11020 11021 11021 11021 11021 11021 11021 11020 11020
10900 10904 10910 10914 10918 10923 10928 10932 10934 10937 10941 10944 10948 10951 10953 10958 10962 10965 10968 10971 10973 10975 10977 10978 10980 10982 10984 10985 10986 10986 10987 10989 10990 10993 10995 10997 10999 11001 11002 11004 11005 11007 11008 11009 11011 11012 11012 11013 11015 11016 11017 11017 11017 11018 11018 11019 11019 11020 11020 11020 11019 11019 11018
10893 10898 10903 10909 10913 10917 10922 10927 10930 10933 10936 10939 10943 10946 10949 10953 10957 10961 10964 10967 10971 10973 10974 10976 10978 10980 10982 10983 10984 10985 10986 10987 10989 10992 10994 10996 10998 10999 11000 11001 11003 11004 11006 11007 11008 11009 11010 11011 11012 11014 11015 11015 11015 11016 11016 11017 11017 11018 11018 11018 11017 11017 11016
10887 10891 10896 10902 10907 10912 10916 10921 10925 10929 10932 10935 10938 10942 10945 10949 10953 10956 10959 10963 10966 10969 10971 10973 10974 10976 10979 10981 10982 10983 10985 10986 10988 10991 10994 10996 10997 10997 10998 10999 11001 11003 11004 11005 11005 11006 11008 11009 11010 11011 11012 11013 11013 11014 11014 11014 11015 11016 11016 11016 11015 11015 11014
10881 10885 10889 10894 10900 10906 10910 10914 10919 10923 10927 10931 10934 10938 10941 10944 10948 10951 10954 10958 10962 10965 10967 10970 10971 10973 10976 10978 10980 10982 10984 10986 10988 10990 10993 10994 10995 10996 10996 10997 10999 11001 11002 11002 11003 11004 11005 11006 11007 11008 11009 11010 11011 11012 11012 11012 11013 11014 11014 11014 11013 11013 11012
10875 10879 10883 10887 10893 10899 10904 10908 10913 10917 10921 10926 10930 10934 10937 10940 10944 10947 10949 10953 10956 10960 10964 10967 10969 10971 10974 10976 10979 10981 10983 10985 10987 10989 10991 10992 10993 10994 10995 10996 10997 10999 10999 11000 11001 11002 11003 11004 11005 11006 11007 11008 11008 11009 11010 11011 11012 11012 11012 11012 11011 11011 11010
10868 10873 10876 10881 10886 10891 10897 10902 10906 10911 10916 10921 10925 10929 10933 10936 10940 10943 10946 10949 10953 10956 10960 10964 10967 10969 10972 10975 10978 10981 10982 10984 10986 10987 10989 10990 10992 10993 10994 10995 10996 10997 10998 10999 10999 11000 11002 11003 11003 11004 11005 11006 11006 11007 11008 11009 11010 11010 11010 11010 11010 11009 11008
10861 10866 10870 10874 10878 10883 10889 10895 10900 10905 10910 10916 10920 10924 10928 10932 10935 10939 10943 10946 10950 10954 10957 10960 10963 10966 10969 10972 10975 10977 10979 10981 10983 10985 10987 10989 10990 10992 10993 10994 10995 10996 10997 10998 10999 11000 11001 11001 11002 11003 11004 11004 11005 11005 11006 11008 11008 11009 11008 11008 11008 11007 11006
10852 10858 10863 10867 10871 10876 10881 10888 10894 10900 10904 10910 10915 10919 10923 10927 10931 10935 10939 10944 10948 10952 10955 10958 10961 10964 10967 10969 10972 10973 10975 10977 10979 10981 10983 10985 10988 10990 10992 10993 10994 10995 10996 10998 10999 10999 11000 11001 11002 11003 11003 11004 11004 11005 11005 11006 11007 11007 11007 11006 11006 11005 11005
10843 10849 10855 10860 10865 10869 10873 10879 10887 10894 10899 10904 10909 10914 10918 10922 10926 10931 10937 10942 10946 10949 10952 10956 10959 10963 10966 10968 10971 10973 10975 10977 10979 10980 10981 10983 10984 10986 10989 10990 10992 10993 10995 10996 10998 10998 10999 11000 11001 11002 11002 11003 11003 11004 11004 11005 11005 11005 11005 11005 11004 11004 11003
10834 10840 10846 10852 10857 10861 10865 10871 10878 10886 10892 10897 10902 10908 10913 10917 10922 10927 10934 10941 10947 10950 10953 10955 10958 10962 10966 10968 10970 10972 10975 10977 10979 10981 10982 10982 10983 10983 10985 10986 10988 10991 10993 10994 10996 10997 10998 10999 10999 11000 11001 11002 11002 11003 11003 11004 11004 11004 11003 11003 11002 11002 11001
10825 10831 10837 10843 10848 10853 10858 10863 10869 10877 10884 10890 10896 10902 10907 10912 10916 10922 10931 10940 10945 10947 10948 10949 10952 10958 10964 10968 10970 10971 10973 10975 10977 10979 10981 10982 10982 10982 10982 10983 10985 10988 10990 10992 10993 10994 10995 10996 10998 10999 11000 11000 11000 11000 11000 11001 11002 11002 11002 11001 11001 11000 10999
10815 10822 10829 10834 10840 10845 10850 10855 10861 10868 10875 10882 10889 10895 10901 10906 10911 10917 10925 10930 10931 10932 10935 10939 10943 10948 10954 10962 10967 10969 10970 10971 10973 10976 10978 10979 10980 10980 10981 10982 10983 10985 10987 10988 10990 10991 10992 10994 10995 10996 10996 10997 10997 10997 10998 10999 10999 10999 10999 10999 10999 10998 10997
10805 10812 10820 10825 10831 10837 10842 10847 10853 10859 10865 10872 10880 10887 10893 10899 10904 10909 10913 10915 10916 10921 10929 10934 10936 10939 10943 10951 10959 10963 10965 10967 10969 10971 10974 10975 10976 10978 10979 10980 10981 10983 10984 10985 10986 10988 10989 10991 10992 10993 10993 10993 10994 10995 10995 10995 10996 10996 10996 10996 10996 10996 10995
10795 10802 10810 10817 10822 10828 10833 10839 10845 10851 10856 10862 10870 10879 10886 10892 10897 10901 10904 10907 10909 10915 10921 10925 10929 10933 10936 10941 10947 10954 10959 10962 10965 10967 10969 10971 10973 10975 10976 10978 10979 10980 10981 10982 10983 10985 10986 10988 10988 10989 10990 10990 10991 10992 10992 10992 10992 10992 10992 10992 10993 10993 10992
10785 10793 10800 10808 10813 10819 10825 10830 10835 10842 10848 10853 10860 10869 10877 10884 10889 10893 10898 10902 10905 10909 10913 10918 10923 10926 10928 10931 10937 10945 10953 10959 10963 10964 10966 10967 10969 10970 10971 10972 10974 10976 10977 10978 10979 10981 10983 10984 10984 10985 10986 10987 10988 10988 10988 10988 10988 10989 10989 10989 10990 10990 10989
10774 10783 10790 10798 10804 10810 10815 10821 10826 10832 10840 10846 10852 10860 10869 10875 10880 10886 10891 10896 10900 10904 10907 10911 10915 10918 10919 10923 10929 10936 10943 10951 10957 10961 10962 10962 10964 10964 10963 10965 10968 10970 10972 10974 10975 10977 10978 10979 10980 10981 10982 10983 10984 10984 10985 10985 10985 10985 10986 10986 10986 10987 10986
10762 10772 10780 10787 10794 10800 10805 10811 10816 10822 10830 10837 10844 10851 10860 10868 10873 10879 10884 10888 10893 10897 10900 10904 10908 10911 10915 10919 10923 10925 10930 10938 10947 10952 10953 10954 10956 10957 10958 10959 10962 10965 10967 10969 10971 10973 10974 10976 10976 10977 10978 10979 10979 10980 10981 10982 10982 10982 10982 10982 10983 10983 10983
10750 10760 10769 10776 10783 10789 10795 10800 10807 10813 10820 10828 10835 10842 10851 10859 10866 10872 10876 10881 10886 10890 10892 10896 10900 10904 10908 10912 10915 10918 10921 10930 10938 10941 10942 10944 10948 10951 10952 10954 10956 10958 10960 10963 10965 10968 10970 10972 10973 10974 10974 10975 10975 10976 10977 10978 10979 10979 10978 10978 10979 10979 10979
10736 10747 10757 10764 10771 10778 10784 10790 10797 10804 10811 10818 10825 10833 10841 10849 10856 10862 10867 10872 10878 10882 10885 10888 10892 10897 10900 10902 10905 10909 10913 10919 10924 10928 10930 10934 10939 10943 10946 10948 10949 10951 10952 10955 10958 10961 10964 10966 10968 10969 10969 10970 10971 10972 10973 10975 10975 10975 10975 10974 10975 10975 10975
10722 10733 10744 10753 10759 10766 10773 10780 10787 10793 10800 10808 10815 10823 10831 10838 10845 10851 10856 10862 10867 10871 10875 10879 10883 10887 10891 10893 10897 10902 10905 10908 10912 10916 10920 10925 10931 10935 10938 10941 10943 10943 10944 10946 10950 10953 10956 10959 10962 10963 10964 10966 10967 10967 10969 10971 10972 10972 10971 10971 10970 10970 10971
10708 10718 10730 10740 10747 10755 10763 10770 10776 10782 10789 10797 10805 10812 10819 10827 10834 10841 10847 10852 10857 10861 10865 10869 10873 10878 10883 10886 10890 10894 10897 10900 10905 10909 10914 10919 10924 10928 10930 10932 10934 10935 10936 10938 10940 10943 10948 10953 10955 10957 10959 10960 10962 10964 10966 10968 10969 10968 10967 10966 10966 10967 10968
10692 10703 10715 10726 10735 10743 10751 10759 10766 10772 10778 10785 10793 10800 10808 10815 10822 10830 10836 10843 10849 10854 10858 10862 10866 10871 10875 10879 10883 10887 10891 10895 10899 10904 10909 10914 10918 10921 10922 10923 10924 10926 10928 10929 10931 10936 10942 10946 10949 10952 10954 10955 10957 10960 10962 10964 10964 10963 10962 10963 10964 10964 10965
10676 10687 10700 10712 10721 10730 10738 10747 10755 10761 10767 10773 10780 10788 10796 10803 10810 10818 10825 10833 10840 10846 10852 10856 10861 10864 10868 10871 10876 10880 10883 10887 10892 10897 10902 10907 10910 10913 10915 10915 10916 10919 10921 10922 10925 10930 10935 10940 10943 10946 10947 10950 10952 10955 10957 10958 10957 10956 10958 10960 10961 10960 10960
10660 10672 10685 10697 10707 10717 10726 10734 10742 10749 10755 10761 10768 10775 10784 10791 10798 10806 10813 10822 10830 10837 10843 10849 10854 10858 10861 10864 10868 10872 10876 10880 10884 10889 10894 10898 10902 10904 10907 10909 10911 10914 10915 10917 10920 10925 10930 10934 10937 10939 10941 10944 10947 10949 10951 10951 10951 10951 10954 10956 10956 10955 10955
10644 10657 10669 10681 10693 10704 10712 10720 10728 10737 10743 10749 10756 10762 10771 10779 10787 10794 10801 10809 10818 10825 10831 10838 10844 10849 10852 10856 10860 10865 10869 10874 10878 10882 10887 10890 10893 10896 10899 10901 10905 10908 10910 10912 10916 10920 10924 10928 10931 10933 10936 10940 10942 10944 10945 10945 10945 10947 10950 10951 10950 10950 10950
10629 10642 10654 10667 10680 10691 10698 10705 10714 10723 10730 10737 10743 10750 10758 10766 10774 10782 10789 10797 10805 10812 10819 10826 10832 10837 10842 10847 10851 10856 10862 10867 10870 10874 10879 10882 10885 10889 10891 10895 10898 10902 10904 10907 10911 10915 10919 10922 10925 10927 10931 10934 10936 10938 10939 10939 10939 10941 10944 10945 10945 10945 10944